weather.gov     
National Weather Service

Regional Weather Roundup
NWS Homepage
This page is being discontinued on March 12, 2014.
The same data is available at this site. Please update your bookmarks.
Thank you, and we apologize for the inconvenience.
Please send an email to SR-SRH.Webmaster@noaa.gov with any concerns.


Current Version
Previous Version:    01  02  03  04  05  06  07  08  09  10  11  12  13  14  15  16  17  18  19  20  21  22  23  24  25  26  27  28  
[Printable]
340
ASUS41 KAKQ 291810
RWRAKQ

REGIONAL WEATHER ROUNDUP
NATIONAL WEATHER SERVICE WAKEFIELD VA
200 PM EDT FRI AUG 29 2014

Note: "fair" indicates few or no clouds below 12,000 feet with no
significant weather and/or obstructions to visibility. * = Denotes
station may not report precipitation (e.g., rain,snow,etc.),
thunder or fog.

VAZ042-051-052>054-056-291900-
NORTHERN VIRGINIA

CITY           SKY/WX    TMP DP  RH WIND       PRES   REMARKS
WASH NATIONAL  MOSUNNY   79  50  36 VRB3      30.18F
DULLES         PTSUNNY   75  54  47 SW5       30.18F
FORT BELVOIR   SUNNY     78  56  46 SE7       30.17F
QUANTICO       SUNNY     77  53  43 CALM      30.18F
FREDERICKSBRG* SUNNY     80  56  44 E6        30.16F
STAFFORD*      SUNNY     76  57  52 CALM      30.21F
WARRENTON      SUNNY     79  62  56 N5        30.18S
CULPEPER*      SUNNY    N/A N/A N/A SE5       30.18F
MANASSAS*      SUNNY     77  55  47 CALM      30.18
LEESBURG*      SUNNY     77  55  47 CALM      30.19F
WINCHESTER     SUNNY     75  54  46 SE7       30.18F
$$

VAZ048-049-060>072-079>083-291900-
CENTRAL AND SOUTH CENTRAL VIRGINIA...AND NORTH CENTRAL NORTH CAROLINA

CITY           SKY/WX    TMP DP  RH WIND       PRES   REMARKS
RICHMOND       PTSUNNY   83  58  42 CALM      30.16F
CHESTERFIELD*  CLEAR    N/A N/A N/A S7        30.17F
PETERSBURG*    SUNNY     81  57  43 CALM      30.16F
HANOVER        SUNNY     80  57  45 VRB6      30.18F
TAPPAHANNOCK*  SUNNY     80  50  34 E5        30.18S
CHARLOTTSVILLE SUNNY     76  56  49 S8        30.18F
ORANGE*        SUNNY     79  55  44 E5        30.19F
LOUISA*        SUNNY     79  57  47 CALM      30.17F
FARMVILLE*     SUNNY     79  57  47 N3        30.16S
SOUTH HILL*    CLOUDY    82  70  65 CALM      30.21S
ROANOKE RAPIDS CLOUDY    79  68  69 NE5       30.14S
RALEIGH        PTSUNNY   82  70  66 E5        30.14S
$$

VAZ088>098-291900-
SOUTHEAST VIRGINIA

CITY           SKY/WX    TMP DP  RH WIND       PRES   REMARKS
NORFOLK        SUNNY     79  63  57 E9        30.16S
VIRGINIA BEACH MOSUNNY   79  63  57 E9        30.16S
NORFOLK NAVAL  MOSUNNY   80  64  58 E13       30.18S
WEST POINT*    SUNNY     82  56  39 CALM      30.19S
NEWPORT NEWS   SUNNY     83  63  50 E9        30.17S
LANGLEY AFB    SUNNY     79  66  64 E9        30.16S
FORT EUSTIS    SUNNY     82  58  44 E7        30.15S
WILLIAMSBURG*  MOSUNNY   84  64  51 CALM      30.17S
FRANKLIN*      PTSUNNY   82  66  57 NE7       30.15S
WAKEFIELD      CLOUDY    82  64  54 VRB3      30.16S
$$

VAZ020-022-025-037-045-291900-
WESTERN AND SOUTHWEST VIRGINIA

CITY           SKY/WX    TMP DP  RH WIND       PRES   REMARKS
STAUNTON*      SUNNY     78  56  46 CALM      30.20F
HOT SPRINGS VA MOSUNNY   66  55  67 SE6       30.29F
LYNCHBURG      CLOUDY    77  61  57 VRB3      30.20F
DANVILLE       CLOUDY    81  66  60 NE6       30.16F
MARTINSVILLE   MOSUNNY   83  65  53 SE3       30.19F
ROANOKE        PTSUNNY   76  58  53 SE7       30.20F
BLACKSBURG     SUNNY     75  64  69 E7        30.23F
DUBLIN*        SUNNY     78  62  58 SE3       30.22F
MARION*        SUNNY    N/A N/A N/A E7        30.23F
HILLSVILLE*    SUNNY     76  65  67 CALM      30.23S
RICHLANDS*     CLEAR     85  67  55 SW6       30.19F
WISE*          PTSUNNY   84  61  45 SE5       30.19F
ABINGDON*      MOSUNNY   85  67  54 CALM      30.16S
$$

MDZ021>025-VAZ099-100-291900-
SOUTHERN MARYLAND AND THE DELMARVA PENINSULA

CITY           SKY/WX    TMP DP  RH WIND       PRES   REMARKS
PATUXENT RIVER PTSUNNY   78  50  37 NE10      30.17F
BAY BRIDGE APT   N/A     73  54  49 NW7       30.18F
LEONARDTOWN    SUNNY     75  52  43 N3        30.19S
DOVER          SUNNY     76  54  46 E5        30.18S
GEORGETOWN     SUNNY     77  56  48 E14       30.18F
EASTON         SUNNY     81  50  34 NE6       30.21F
CAMBRIDGE      SUNNY     77  52  41 NW5       30.17F
SALISBURY      SUNNY     81  55  40 NE6       30.17F
OCEAN CITY     SUNNY     77  55  46 NE13G22   30.17S
WALLOPS ISLAND PTSUNNY   82  57  42 N7        30.17S
ACCOMACK*      NOT AVBL
$$

NCZ012>017-030>032-291900-
EASTERN NORTH CAROLINA

CITY           SKY/WX    TMP DP  RH WIND       PRES   REMARKS
ELIZABETH CITY MOSUNNY   81  66  60 NE10      30.15S
AHOSKIE*       MOSUNNY   79  69  70 NE5       30.14S
EDENTON*       MOSUNNY   82  69  64 E10       30.14S
CURRITUCK*     NOT AVBL
KILL DEVIL HLS CLOUDY    80  66  62 NE9G17    30.14S
MANTEO         CLOUDY    78  67  68 NE16      30.15R
CAPE HATTERAS  MOSUNNY   81  73  76 VRB7      30.11S
GOLDSBORO      MOSUNNY   85  78  79 E6        30.10R HX  95
WASHINGTON     SUNNY     83  72  70 E8        30.12F
GREENVILLE     CLOUDY    84  73  70 E7        30.13S
NEW BERN       MOSUNNY   89  73  59 SE5       30.11F HX  97
WILMINGTON     SUNNY     89  66  46 CALM      30.10S
$$

VAZ048-291900-
ELSEWHERE

CITY           SKY/WX    TMP DP  RH WIND       PRES   REMARKS
HARRISBURG PA  PTSUNNY   75  51  43 CALM      30.18F
BALTIMORE      PTSUNNY   76  50  40 E6        30.18F
ANNAPOLIS      SUNNY     74  49  41 E6        30.18F
ANDREWS AFB    SUNNY     76  55  47 VRB5      30.17F
WILMINGTON DE  MOSUNNY   74  50  42 SE8       30.19F
PHILADELPHIA   PTSUNNY   79  49  34 SE8       30.18S
WILDWOOD NJ*   CLOUDY    73  55  53 N7        30.19F
ATLANTIC CITY  CLOUDY    74  60  61 VRB6      30.19R
HENDERSON NC   CLOUDY    77  67  71 NE7       30.16S
GREENSBORO     CLOUDY    79  68  69 NE6       30.15F
ROCKY MOUNT    CLOUDY    83  71  67 NE8       30.13F
FAYETTEVILLE   SUNNY     91  68  46 VRB3      30.09S HX  95
CHARLOTTE      MOSUNNY   84  69  60 N12       30.13F
$$

VAZ100-291900-
MARINE

STATION/POSITION TIME  TEMP    WIND        PRES    WAVE   SWELL
                       AIR SEA DIR/SP/G            HT/PER HT/PER
                 (UTC) (F)     (DEG/KT/KT) (MB)    (FT/S) (FT/S)
44066 TX TWR #4  1800   69 73   40/ 10/ 12 1022.0R   4/10   3/10
CAPE MAY NJ      1800   73 79  320/  6/  8 1021.6F
LEWES DE         1800   71 75  350/  5/  8 1021.9F
15NM E FENWICK I 1800   69 74              1021.5F   3/10
OCEAN-CITY-INLET 1800   72 76   60/ 11/ 18 1021.3S
WACHAPREAGUE VA  1800   73 79   90/  7/  9 1021.5F
THOMAS POINT MD  1800   70 78   30/  4/  6 1023.0F
GOOSES REEF MD   1800   71      20/  6/  8 1022.7F
COVE POINT MD    1800   71     360/  7/ 10 1021.9F
SOLOMONS ISLAND  1800      80                N/A
BISHOPS HEAD MD  1800   74 79  270/  2/  4 1021.4F
PINEY POINT MD   1800          140/  5/  6   N/A
POTOMAC MD       1800   72      60/  6/ 10 1021.3S
CAMBRIDGE MD     1800   73 78  350/  5/  8 1021.5F
LEWISETTA VA     1800   73 78  100/  4/  7 1021.5S
RAPPAHANNOCK LGT 1800          350/ 10/ 11 1022.1S
STINGRAY PT      1800   73      40/  8/ 10   N/A
YORK RVR RNG VA  1800   74      50/  9/ 10 1021.2R
YORKTOWN VA      1800   75 80   90/  8/  9 1021.3S
JAMESTOWN VA     1800   76     130/ 10/ 12   N/A
DOMINION TERM VA 1800   77      90/  3/  9 1021.5S
KIPTOPEKE VA     1800      81   70/  6/ 10   N/A
CHES BAY BRIDGE  1800   74 78   60/ 10/ 12 1021.1S
CAPE HENRY VA    1800   74      60/ 10/ 12 1020.4S
CHESAPEAKE LGHT  1700   73      60/ 13/ 14 1022.1S
WILLOUBY STN VA  1800   74      80/  9/ 10 1020.3F
S CRANEY ISL VA  1800           30/ 10/ 12 1021.1S
CAPE HENRY BUOY  1800      77                N/A     3/10
1ST LANDING BUOY 1800   75      70/ 10/ 12 1021.2F
CAPE CHARLES BUO 1800      77                N/A     3/10   2/10
OFFSHORE WE BUOY 1800      75                N/A     3/ 9   3/ 9
64NM E OF VA BCH 1800   76 76   40/  8/ 10 1020.8R   3/ 9   3/ 9
DUCK PIER NC     1800   76 78   50/ 14/ 17 1020.2S
44056 DUCK FRF   1800                        N/A     3/10
OREGON INLET NC  1800   77 79   50/ 14/ 18 1020.4S
HATTERAS NC      1800   79 81   60/  9/ 12 1020.1F
DIAMOND SHLS NC  1800   80      CALM  /  2 1019.8R   3/ 9   3/ 9
CAPE LOOKOUT NC  1700   83     210/  7/  9 1019.4F
$$




U.S. Dept. of Commerce
NOAA National Weather Service
1325 East West Highway
Silver Spring, MD 20910
E-mail: w-nws.webmaster@noaa.gov
Page last modified: May 16, 2007
NATIONAL WEATHER SERVICE: for Safety, for Work, for Fun - FOR LIFE